User: anonymous   Login
Location: Unspecified
(0.0000°N, 0.0000°E)
Time: 11:10:21
(UTC+00:00)
Language:

DOVE 4 - Orbit

View from above orbital plane
View from above orbital plane
View from above satellite
View from above satellite

Ground track
Ground track

The orbit data is extracted from the following two-line orbital elements,

1 39430U 13066Q   19349.13370660  .00000215  00000-0  47572-4 0  9994
2 39430  97.7704 294.0782 0152195  48.7927 312.6280 14.59323442322777
Epoch (UTC): 15 December 2019 03:12:32
Eccentricity: 0.0152195
inclination: 97.7704°
perigee height: 588 km
apogee height: 803 km
right ascension of ascending node: 294.0782°
argument of perigee: 48.7927°
revolutions per day: 14.59323442
mean anomaly at epoch: 312.6280°
orbit number at epoch: 32277

The dashed part of the orbit path shows where the satellite is in the earth's shadow,  

DLR